When you browse on this site, cookies collect data to enhance your experience and personalize the content and advertising you see.
Visit our Privacy Policy to learn more. By continuing to use the site, you agree to this use of cookies and data.
  • In Deutschland
  • Länderverzeichnis
  • Für 7 Tage
  • Wassertemperatur
  • Wetterkarte
  • Widgets
  • user-avatar
    Anmelden

    Stündliche Wetter Belize

    Heute, 23 September, Montag

    Zeit Temperatur Niederschläge Wind Luftdruck Luftfeuchtigkeit
    00:00 +26°C° 0.3 mm 3 m/S 758 mmHg 94%
    01:00 +26°C° 0 mm 3 m/S 758 mmHg 94%
    02:00 +26°C° 0 mm 3 m/S 758 mmHg 94%
    03:00 +25°C° 0 mm 2 m/S 758 mmHg 95%
    04:00 +25°C° 0.1 mm 2 m/S 758 mmHg 95%
    05:00 +25°C° 0.1 mm 2 m/S 758 mmHg 95%
    06:00 +25°C° 0.1 mm 2 m/S 758 mmHg 95%
    07:00 +28°C° 0 mm 2 m/S 758 mmHg 84%
    08:00 +30°C° 0 mm 2 m/S 759 mmHg 73%
    09:00 +34°C° 0 mm 2 m/S 759 mmHg 62%
    10:00 +36°C° 0 mm 2 m/S 759 mmHg 54%
    11:00 +38°C° 0 mm 2 m/S 758 mmHg 47%
    12:00 +41°C° 0 mm 2 m/S 757 mmHg 39%
    13:00 +39°C° 0 mm 3 m/S 757 mmHg 42%
    14:00 +38°C° 0 mm 3 m/S 756 mmHg 45%
    15:00 +37°C° 0 mm 3 m/S 756 mmHg 48%
    16:00 +35°C° 0 mm 3 m/S 756 mmHg 59%
    17:00 +33°C° 0 mm 3 m/S 756 mmHg 70%
    18:00 +29°C° 0 mm 3 m/S 756 mmHg 81%
    19:00 +29°C° 0 mm 3 m/S 756 mmHg 83%
    20:00 +28°C° 0 mm 4 m/S 757 mmHg 85%
    21:00 +27°C° 0 mm 4 m/S 758 mmHg 88%
    22:00 +27°C° 0.1 mm 4 m/S 757 mmHg 88%
    23:00 +27°C° 0.1 mm 4 m/S 757 mmHg 89%

    Morgen, 24 September, Dienstag

    Zeit Temperatur Niederschläge Wind Luftdruck Luftfeuchtigkeit
    00:00 +26°C° 0.1 mm 3 m/S 757 mmHg 89%
    01:00 +26°C° 0.2 mm 3 m/S 757 mmHg 90%
    02:00 +26°C° 0.2 mm 3 m/S 757 mmHg 90%
    03:00 +26°C° 0.2 mm 2 m/S 757 mmHg 91%
    04:00 +26°C° 0 mm 2 m/S 757 mmHg 93%
    05:00 +25°C° 0 mm 2 m/S 757 mmHg 94%
    06:00 +25°C° 0 mm 2 m/S 757 mmHg 96%
    07:00 +28°C° 0 mm 2 m/S 757 mmHg 84%
    08:00 +31°C° 0 mm 2 m/S 758 mmHg 72%
    09:00 +34°C° 0 mm 1 m/S 758 mmHg 60%
    10:00 +37°C° 0 mm 2 m/S 757 mmHg 53%
    11:00 +39°C° 0 mm 2 m/S 757 mmHg 46%
    12:00 +41°C° 0 mm 2 m/S 756 mmHg 39%
    13:00 +40°C° 0 mm 3 m/S 756 mmHg 43%
    14:00 +38°C° 0 mm 3 m/S 755 mmHg 48%
    15:00 +37°C° 0 mm 3 m/S 754 mmHg 53%
    16:00 +35°C° 0 mm 3 m/S 755 mmHg 62%
    17:00 +32°C° 0 mm 4 m/S 755 mmHg 72%
    18:00 +29°C° 0 mm 4 m/S 755 mmHg 81%
    19:00 +29°C° 0 mm 4 m/S 756 mmHg 84%
    20:00 +28°C° 0 mm 4 m/S 756 mmHg 87%
    21:00 +28°C° 0 mm 4 m/S 757 mmHg 90%
    22:00 +27°C° 0.2 mm 4 m/S 756 mmHg 91%
    23:00 +27°C° 0.2 mm 4 m/S 756 mmHg 92%

    übermorgen, 25 September, Mittwoch

    Zeit Temperatur Niederschläge Wind Luftdruck Luftfeuchtigkeit
    00:00 +27°C° 0.2 mm 4 m/S 756 mmHg 93%
    01:00 +26°C° 0.7 mm 4 m/S 756 mmHg 94%
    02:00 +26°C° 0.7 mm 3 m/S 756 mmHg 95%
    03:00 +26°C° 0.7 mm 3 m/S 756 mmHg 96%
    04:00 +26°C° 0.1 mm 3 m/S 756 mmHg 96%
    05:00 +26°C° 0.1 mm 3 m/S 756 mmHg 97%
    06:00 +25°C° 0.1 mm 2 m/S 757 mmHg 97%
    07:00 +28°C° 0 mm 2 m/S 757 mmHg 86%
    08:00 +30°C° 0 mm 2 m/S 757 mmHg 75%
    09:00 +34°C° 0 mm 2 m/S 758 mmHg 64%
    10:00 +36°C° 0 mm 2 m/S 757 mmHg 55%
    11:00 +39°C° 0 mm 2 m/S 756 mmHg 47%
    12:00 +41°C° 0 mm 2 m/S 756 mmHg 39%
    13:00 +40°C° 0 mm 3 m/S 755 mmHg 42%
    14:00 +40°C° 0 mm 4 m/S 755 mmHg 46%
    15:00 +37°C° 0 mm 4 m/S 754 mmHg 50%
    16:00 +35°C° 0 mm 4 m/S 754 mmHg 61%
    17:00 +33°C° 0 mm 4 m/S 754 mmHg 72%
    18:00 +29°C° 0 mm 5 m/S 755 mmHg 83%
    19:00 +29°C° 0 mm 5 m/S 755 mmHg 85%
    20:00 +28°C° 0 mm 5 m/S 756 mmHg 86%
    21:00 +28°C° 0 mm 5 m/S 756 mmHg 88%
    22:00 +28°C° 0.6 mm 5 m/S 756 mmHg 90%
    23:00 +27°C° 0.6 mm 5 m/S 756 mmHg 93%

    26 September, Donnerstag

    Zeit Temperatur Niederschläge Wind Luftdruck Luftfeuchtigkeit
    00:00 +27°C° 0.6 mm 5 m/S 756 mmHg 95%
    01:00 +27°C° 0.4 mm 4 m/S 756 mmHg 95%
    02:00 +26°C° 0.4 mm 3 m/S 755 mmHg 96%
    03:00 +26°C° 0.4 mm 3 m/S 755 mmHg 97%
    04:00 +26°C° 0.2 mm 2 m/S 755 mmHg 97%
    05:00 +26°C° 0.2 mm 2 m/S 756 mmHg 97%
    06:00 +26°C° 0.2 mm 2 m/S 756 mmHg 97%
    07:00 +28°C° 0 mm 1 m/S 756 mmHg 86%
    08:00 +31°C° 0 mm 1 m/S 756 mmHg 76%
    09:00 +33°C° 0 mm 1 m/S 757 mmHg 65%
    10:00 +34°C° 0 mm 1 m/S 756 mmHg 59%
    11:00 +37°C° 0 mm 2 m/S 756 mmHg 53%
    12:00 +38°C° 0 mm 2 m/S 756 mmHg 47%
    13:00 +37°C° 0 mm 3 m/S 755 mmHg 50%
    14:00 +36°C° 0 mm 4 m/S 754 mmHg 53%
    15:00 +36°C° 0 mm 4 m/S 754 mmHg 56%
    16:00 +34°C° 0.1 mm 4 m/S 754 mmHg 65%
    17:00 +32°C° 0.1 mm 5 m/S 754 mmHg 73%
    18:00 +29°C° 0.1 mm 5 m/S 754 mmHg 82%
    19:00 +29°C° 0.3 mm 5 m/S 755 mmHg 85%
    20:00 +28°C° 0.3 mm 5 m/S 755 mmHg 88%
    21:00 +28°C° 0.3 mm 5 m/S 756 mmHg 91%
    22:00 +27°C° 0.7 mm 5 m/S 756 mmHg 93%
    23:00 +27°C° 0.7 mm 5 m/S 756 mmHg 96%

    27 September, Freitag

    Zeit Temperatur Niederschläge Wind Luftdruck Luftfeuchtigkeit
    00:00 +27°C° 0.7 mm 5 m/S 756 mmHg 98%
    01:00 +26°C° 0.9 mm 5 m/S 755 mmHg 98%
    02:00 +26°C° 0.9 mm 5 m/S 755 mmHg 98%
    03:00 +26°C° 0.9 mm 4 m/S 755 mmHg 99%
    04:00 +26°C° 1.4 mm 4 m/S 755 mmHg 98%
    05:00 +26°C° 1.4 mm 4 m/S 755 mmHg 98%
    06:00 +26°C° 1.4 mm 4 m/S 755 mmHg 98%
    07:00 +27°C° 1.5 mm 4 m/S 756 mmHg 95%
    08:00 +29°C° 1.5 mm 5 m/S 756 mmHg 92%
    09:00 +30°C° 1.5 mm 5 m/S 756 mmHg 89%
    10:00 +30°C° 1.2 mm 5 m/S 756 mmHg 86%
    11:00 +32°C° 1.2 mm 5 m/S 756 mmHg 83%
    12:00 +32°C° 1.2 mm 6 m/S 756 mmHg 80%
    13:00 +32°C° 0.9 mm 6 m/S 755 mmHg 80%
    14:00 +32°C° 0.9 mm 5 m/S 755 mmHg 81%
    15:00 +32°C° 0.9 mm 5 m/S 754 mmHg 81%
    16:00 +30°C° 0.9 mm 6 m/S 754 mmHg 86%
    17:00 +29°C° 0.9 mm 6 m/S 755 mmHg 91%
    18:00 +28°C° 0.9 mm 6 m/S 755 mmHg 95%
    19:00 +28°C° 0.8 mm 6 m/S 755 mmHg 96%
    20:00 +28°C° 0.8 mm 7 m/S 756 mmHg 97%
    21:00 +27°C° 0.8 mm 7 m/S 756 mmHg 98%
    22:00 +27°C° 1 mm 7 m/S 756 mmHg 98%
    23:00 +27°C° 1 mm 6 m/S 755 mmHg 98%

    28 September, Samstag

    Zeit Temperatur Niederschläge Wind Luftdruck Luftfeuchtigkeit
    00:00 +27°C° 1 mm 6 m/S 755 mmHg 98%
    01:00 +27°C° 2 mm 7 m/S 755 mmHg 98%
    02:00 +27°C° 2 mm 7 m/S 755 mmHg 98%
    03:00 +27°C° 2 mm 7 m/S 754 mmHg 98%
    04:00 +27°C° 0.2 mm 7 m/S 755 mmHg 98%
    05:00 +28°C° 0.2 mm 7 m/S 755 mmHg 97%
    06:00 +28°C° 0.2 mm 7 m/S 755 mmHg 97%
    07:00 +29°C° 1.2 mm 7 m/S 756 mmHg 90%
    08:00 +32°C° 1.2 mm 6 m/S 756 mmHg 83%
    09:00 +33°C° 1.2 mm 6 m/S 757 mmHg 76%
    10:00 +34°C° 0.5 mm 6 m/S 757 mmHg 70%
    11:00 +35°C° 0.5 mm 6 m/S 756 mmHg 64%
    12:00 +36°C° 0.5 mm 6 m/S 756 mmHg 58%
    13:00 +36°C° 0.1 mm 6 m/S 755 mmHg 60%
    14:00 +35°C° 0.1 mm 6 m/S 755 mmHg 63%
    15:00 +35°C° 0.1 mm 6 m/S 754 mmHg 65%
    16:00 +33°C° 0 mm 6 m/S 755 mmHg 72%
    17:00 +32°C° 0 mm 5 m/S 755 mmHg 78%
    18:00 +29°C° 0 mm 5 m/S 755 mmHg 85%
    19:00 +29°C° 0.1 mm 5 m/S 756 mmHg 87%
    20:00 +29°C° 0.1 mm 5 m/S 756 mmHg 89%
    21:00 +28°C° 0.1 mm 5 m/S 757 mmHg 91%
    22:00 +28°C° 1 mm 5 m/S 757 mmHg 92%
    23:00 +28°C° 1 mm 6 m/S 757 mmHg 93%
    Mehr zeigen